OneWeb SL0115

operational
NORAD ID: 48042 Int'l Des: 2021-025 Owner: ONEWEBN Country: UK Constellation: oneweb
LEOCIRCULARPOLARONEWEB_TYPE

OneWeb SL0115について

説明を読み込み中...

リアルタイム位置

3D地球を読み込み中...

次回通過

高度履歴

Altitude vs Time

uPlot chart will show altitude changes over time

軌道要素

1 48042U 21025A 25258.55547860 .00000245 00000-0 63498-3 0 9994
2 48042 87.9039 14.7705 0001761 98.5773 261.5556 13.13471467217540
Epoch: Sep 15, 2025 • Age: 17 hours

現在のステータス

高度 1217.4 km
速度 7.25 km/s
衛星直下点 52.82°N, 68.86°W
打ち上げ日 Mar 25, 2021
運用期間 4.4 years
タイプ internet

技術仕様

分類 Payload
質量 148.00 kg
乾燥質量 140.00 kg
総質量 148.00 kg
長さ 1.30 m
直径 1.00 m
スパン 5.00 m
形状 Trapezoid+2 pan
製造者 ONEWUS
バスタイプ ARROW
フェーズステータス In Orbit
所有者/国 ONEWEBN/UK

大規模コンステレーション

Loading constellations...